Year,Month,Day,Hour,Minute,Value (Times are PST for temperature in C)
2010,08,19,00,00,14.80
2010,08,19,00,01,14.70
2010,08,19,00,02,14.70
2010,08,19,00,03,14.70
2010,08,19,00,04,14.70
2010,08,19,00,05,14.70
2010,08,19,00,06,14.70
2010,08,19,00,07,14.70
2010,08,19,00,08,14.70
2010,08,19,00,09,14.70
2010,08,19,00,10,14.70
2010,08,19,00,11,14.70
2010,08,19,00,12,14.70
2010,08,19,00,13,14.70
2010,08,19,00,14,14.70
2010,08,19,00,15,14.70
2010,08,19,00,16,14.70
2010,08,19,00,17,14.70
2010,08,19,00,18,14.70
2010,08,19,00,19,14.60
2010,08,19,00,20,14.60
2010,08,19,00,21,14.60
2010,08,19,00,22,14.60
2010,08,19,00,23,14.60
2010,08,19,00,24,14.60
2010,08,19,00,25,14.60
2010,08,19,00,26,14.60
2010,08,19,00,27,14.60
2010,08,19,00,28,14.60
2010,08,19,00,29,14.50
2010,08,19,00,30,14.50
2010,08,19,00,31,14.50
2010,08,19,00,32,14.50
2010,08,19,00,33,14.50
2010,08,19,00,34,14.50
2010,08,19,00,35,14.50
2010,08,19,00,36,14.50
2010,08,19,00,37,14.40
2010,08,19,00,38,14.40
2010,08,19,00,39,14.40
2010,08,19,00,40,14.40
2010,08,19,00,41,14.40
2010,08,19,00,42,14.40
2010,08,19,00,43,14.40
2010,08,19,00,44,14.40
2010,08,19,00,45,14.40
2010,08,19,00,46,14.40
2010,08,19,00,47,14.40
2010,08,19,00,48,14.30
2010,08,19,00,49,14.30
2010,08,19,00,50,14.30
2010,08,19,00,51,14.30
2010,08,19,00,52,14.30
2010,08,19,00,53,14.30
2010,08,19,00,54,14.30
2010,08,19,00,55,14.30
2010,08,19,00,56,14.30
2010,08,19,00,57,14.30
2010,08,19,00,58,14.30
2010,08,19,00,59,14.30
2010,08,19,01,00,14.30
2010,08,19,01,01,14.20
2010,08,19,01,02,14.20
2010,08,19,01,03,14.20
2010,08,19,01,04,14.20
2010,08,19,01,05,14.20
2010,08,19,01,06,14.20
2010,08,19,01,07,14.20
2010,08,19,01,08,14.20
2010,08,19,01,09,14.20
2010,08,19,01,10,14.20
2010,08,19,01,11,14.20
2010,08,19,01,12,14.20
2010,08,19,01,13,14.20
2010,08,19,01,14,14.20
2010,08,19,01,15,14.20
2010,08,19,01,16,14.20
2010,08,19,01,17,14.10
2010,08,19,01,18,14.10
2010,08,19,01,19,14.10
2010,08,19,01,20,14.10
2010,08,19,01,21,14.10
2010,08,19,01,22,14.10
2010,08,19,01,23,14.10
2010,08,19,01,24,14.10
2010,08,19,01,25,14.10
2010,08,19,01,26,14.10
2010,08,19,01,27,14.00
2010,08,19,01,28,14.00
2010,08,19,01,29,14.00
2010,08,19,01,30,14.00
2010,08,19,01,31,13.90
2010,08,19,01,32,13.90
2010,08,19,01,33,13.90
2010,08,19,01,34,13.90
2010,08,19,01,35,13.90
2010,08,19,01,36,13.90
2010,08,19,01,37,13.80
2010,08,19,01,38,13.80
2010,08,19,01,39,13.80
2010,08,19,01,40,13.80
2010,08,19,01,41,13.80
2010,08,19,01,42,13.70
2010,08,19,01,43,13.70
2010,08,19,01,44,13.70
2010,08,19,01,45,13.70
2010,08,19,01,46,13.70
2010,08,19,01,47,13.60
2010,08,19,01,48,13.60
2010,08,19,01,49,13.60
2010,08,19,01,50,13.60
2010,08,19,01,51,13.60
2010,08,19,01,52,13.60
2010,08,19,01,53,13.50
2010,08,19,01,54,13.50
2010,08,19,01,55,13.50
2010,08,19,01,56,13.50
2010,08,19,01,57,13.40
2010,08,19,01,58,13.40
2010,08,19,01,59,13.40
2010,08,19,02,00,13.40
2010,08,19,02,01,13.40
2010,08,19,02,02,13.40
2010,08,19,02,03,13.40
2010,08,19,02,04,13.40
2010,08,19,02,05,13.30
2010,08,19,02,06,13.30
2010,08,19,02,07,13.30
2010,08,19,02,08,13.30
2010,08,19,02,09,13.30
2010,08,19,02,10,13.30
2010,08,19,02,11,13.30
2010,08,19,02,12,13.30
2010,08,19,02,13,13.30
2010,08,19,02,14,13.30
2010,08,19,02,15,13.30
2010,08,19,02,16,13.30
2010,08,19,02,17,13.20
2010,08,19,02,18,13.20
2010,08,19,02,19,13.20
2010,08,19,02,20,13.20
2010,08,19,02,21,13.20
2010,08,19,02,22,13.20
2010,08,19,02,23,13.10
2010,08,19,02,24,13.10
2010,08,19,02,25,13.10
2010,08,19,02,26,13.10
2010,08,19,02,27,13.10
2010,08,19,02,28,13.10
2010,08,19,02,29,13.10
2010,08,19,02,30,13.10
2010,08,19,02,31,13.10
2010,08,19,02,32,13.10
2010,08,19,02,33,13.10
2010,08,19,02,34,13.10
2010,08,19,02,35,13.10
2010,08,19,02,36,13.00
2010,08,19,02,37,13.00
2010,08,19,02,38,13.00
2010,08,19,02,39,13.00
2010,08,19,02,40,13.00
2010,08,19,02,41,13.00
2010,08,19,02,42,12.90
2010,08,19,02,43,12.90
2010,08,19,02,44,12.90
2010,08,19,02,45,12.90
2010,08,19,02,46,12.90
2010,08,19,02,47,12.90
2010,08,19,02,48,12.90
2010,08,19,02,49,12.90
2010,08,19,02,50,12.80
2010,08,19,02,51,12.80
2010,08,19,02,52,12.80
2010,08,19,02,53,12.80
2010,08,19,02,54,12.80
2010,08,19,02,55,12.80
2010,08,19,02,56,12.80
2010,08,19,02,57,12.80
2010,08,19,02,58,12.80
2010,08,19,02,59,12.80
2010,08,19,03,00,12.80
2010,08,19,03,01,12.80
2010,08,19,03,02,12.80
2010,08,19,03,03,12.80
2010,08,19,03,04,12.80
2010,08,19,03,05,12.80
2010,08,19,03,06,12.80
2010,08,19,03,07,12.80
2010,08,19,03,08,12.80
2010,08,19,03,09,12.70
2010,08,19,03,10,12.70
2010,08,19,03,11,12.70
2010,08,19,03,12,12.70
2010,08,19,03,13,12.70
2010,08,19,03,14,12.70
2010,08,19,03,15,12.70
2010,08,19,03,16,12.70
2010,08,19,03,17,12.70
2010,08,19,03,18,12.70
2010,08,19,03,19,12.70
2010,08,19,03,20,12.70
2010,08,19,03,21,12.60
2010,08,19,03,22,12.60
2010,08,19,03,23,12.60
2010,08,19,03,24,12.60
2010,08,19,03,25,12.60
2010,08,19,03,26,12.60
2010,08,19,03,27,12.60
2010,08,19,03,28,12.60
2010,08,19,03,29,12.60
2010,08,19,03,30,12.60
2010,08,19,03,31,12.60
2010,08,19,03,32,12.60
2010,08,19,03,33,12.60
2010,08,19,03,34,12.60
2010,08,19,03,35,12.60
2010,08,19,03,36,12.60
2010,08,19,03,37,12.60
2010,08,19,03,38,12.60
2010,08,19,03,39,12.60
2010,08,19,03,40,12.60
2010,08,19,03,41,12.60
2010,08,19,03,42,12.70
2010,08,19,03,43,12.70
2010,08,19,03,44,12.70
2010,08,19,03,45,12.70
2010,08,19,03,46,12.70
2010,08,19,03,47,12.70
2010,08,19,03,48,12.70
2010,08,19,03,49,12.70
2010,08,19,03,50,12.80
2010,08,19,03,51,12.80
2010,08,19,03,52,12.80
2010,08,19,03,53,12.80
2010,08,19,03,54,12.80
2010,08,19,03,55,12.80
2010,08,19,03,56,12.80
2010,08,19,03,57,12.80
2010,08,19,03,58,12.90
2010,08,19,03,59,12.90
2010,08,19,04,00,12.90
2010,08,19,04,01,12.90
2010,08,19,04,02,12.90
2010,08,19,04,03,12.90
2010,08,19,04,04,13.00
2010,08,19,04,05,13.00
2010,08,19,04,06,13.00
2010,08,19,04,07,13.10
2010,08,19,04,08,13.10
2010,08,19,04,09,13.20
2010,08,19,04,10,13.20
2010,08,19,04,11,13.30
2010,08,19,04,12,13.30
2010,08,19,04,13,13.30
2010,08,19,04,14,13.40
2010,08,19,04,15,13.40
2010,08,19,04,16,13.40
2010,08,19,04,17,13.40
2010,08,19,04,18,13.40
2010,08,19,04,19,13.50
2010,08,19,04,20,13.50
2010,08,19,04,21,13.50
2010,08,19,04,22,13.50
2010,08,19,04,23,13.50
2010,08,19,04,24,13.60
2010,08,19,04,25,13.60
2010,08,19,04,26,13.60
2010,08,19,04,27,13.60
2010,08,19,04,28,13.60
2010,08,19,04,29,13.60
2010,08,19,04,30,13.70
2010,08,19,04,31,13.70
2010,08,19,04,32,13.70
2010,08,19,04,33,13.80
2010,08,19,04,34,13.80
2010,08,19,04,35,13.90
2010,08,19,04,36,14.00
2010,08,19,04,37,14.00
2010,08,19,04,38,14.10
2010,08,19,04,39,14.20
2010,08,19,04,40,14.20
2010,08,19,04,41,14.30
2010,08,19,04,42,14.30
2010,08,19,04,43,14.30
2010,08,19,04,44,14.40
2010,08,19,04,45,14.40
2010,08,19,04,46,14.40
2010,08,19,04,47,14.40
2010,08,19,04,48,14.40
2010,08,19,04,49,14.40
2010,08,19,04,50,14.40
2010,08,19,04,51,14.40
2010,08,19,04,52,14.40
2010,08,19,04,53,14.40
2010,08,19,04,54,14.40
2010,08,19,04,55,14.40
2010,08,19,04,56,14.40
2010,08,19,04,57,14.40
2010,08,19,04,58,14.40
2010,08,19,04,59,14.40
2010,08,19,05,00,14.40
2010,08,19,05,01,14.40
2010,08,19,05,02,14.40
2010,08,19,05,03,14.40
2010,08,19,05,04,14.40
2010,08,19,05,05,14.40
2010,08,19,05,06,14.40
2010,08,19,05,07,14.40
2010,08,19,05,08,14.40
2010,08,19,05,09,14.40
2010,08,19,05,10,14.40
2010,08,19,05,11,14.50
2010,08,19,05,12,14.50
2010,08,19,05,13,14.50
2010,08,19,05,14,14.50
2010,08,19,05,15,14.50
2010,08,19,05,16,14.50
2010,08,19,05,17,14.50
2010,08,19,05,18,14.50
2010,08,19,05,19,14.50
2010,08,19,05,20,14.50
2010,08,19,05,21,14.50
2010,08,19,05,22,14.50
2010,08,19,05,23,14.50
2010,08,19,05,24,14.50
2010,08,19,05,25,14.50
2010,08,19,05,26,14.50
2010,08,19,05,27,14.50
2010,08,19,05,28,14.50
2010,08,19,05,29,14.50
2010,08,19,05,30,14.50
2010,08,19,05,31,14.50
2010,08,19,05,32,14.60
2010,08,19,05,33,14.60
2010,08,19,05,34,14.60
2010,08,19,05,35,14.60
2010,08,19,05,36,14.60
2010,08,19,05,37,14.60
2010,08,19,05,38,14.60
2010,08,19,05,39,14.60
2010,08,19,05,40,14.60
2010,08,19,05,41,14.60
2010,08,19,05,42,14.70
2010,08,19,05,43,14.70
2010,08,19,05,44,14.70
2010,08,19,05,45,14.70
2010,08,19,05,46,14.70
2010,08,19,05,47,14.70
2010,08,19,05,48,14.70
2010,08,19,05,49,14.70
2010,08,19,05,50,14.70
2010,08,19,05,51,14.70
2010,08,19,05,52,14.70
2010,08,19,05,53,14.70
2010,08,19,05,54,14.70
2010,08,19,05,55,14.70
2010,08,19,05,56,14.70
2010,08,19,05,57,14.70
2010,08,19,05,58,14.70
2010,08,19,05,59,14.70
2010,08,19,06,00,14.70
2010,08,19,06,01,14.70
2010,08,19,06,02,14.70
2010,08,19,06,03,14.70
2010,08,19,06,04,14.70
2010,08,19,06,05,14.70
2010,08,19,06,06,14.70
2010,08,19,06,07,14.70
2010,08,19,06,08,14.70
2010,08,19,06,09,14.70
2010,08,19,06,10,14.70
2010,08,19,06,11,14.70
2010,08,19,06,12,14.70
2010,08,19,06,13,14.70
2010,08,19,06,14,14.70
2010,08,19,06,15,14.70
2010,08,19,06,16,14.70
2010,08,19,06,17,14.70
2010,08,19,06,18,14.70
2010,08,19,06,19,14.70
2010,08,19,06,20,14.70
2010,08,19,06,21,14.70
2010,08,19,06,22,14.70
2010,08,19,06,23,14.70
2010,08,19,06,24,14.70
2010,08,19,06,25,14.70
2010,08,19,06,26,14.70
2010,08,19,06,27,14.70
2010,08,19,06,28,14.70
2010,08,19,06,29,14.70
2010,08,19,06,30,14.70
2010,08,19,06,31,14.70
2010,08,19,06,32,14.70
2010,08,19,06,33,14.80
2010,08,19,06,34,14.70
2010,08,19,06,35,14.80
2010,08,19,06,36,14.80
2010,08,19,06,37,14.80
2010,08,19,06,38,14.80
2010,08,19,06,39,14.80
2010,08,19,06,40,14.80
2010,08,19,06,41,14.80
2010,08,19,06,42,14.80
2010,08,19,06,43,14.80
2010,08,19,06,44,14.80
2010,08,19,06,45,14.80
2010,08,19,06,46,14.80
2010,08,19,06,47,14.80
2010,08,19,06,48,14.80
2010,08,19,06,49,14.80
2010,08,19,06,50,14.80
2010,08,19,06,51,14.80
2010,08,19,06,52,14.80
2010,08,19,06,53,14.80
2010,08,19,06,54,14.80
2010,08,19,06,55,14.80
2010,08,19,06,56,14.80
2010,08,19,06,57,14.80
2010,08,19,06,58,14.80
2010,08,19,06,59,14.80
2010,08,19,07,00,14.90
2010,08,19,07,01,14.90
2010,08,19,07,02,14.90
2010,08,19,07,03,14.90
2010,08,19,07,04,14.90
2010,08,19,07,05,14.90
2010,08,19,07,06,14.90
2010,08,19,07,07,14.90
2010,08,19,07,08,14.90
2010,08,19,07,09,15.00
2010,08,19,07,10,15.00
2010,08,19,07,11,15.00
2010,08,19,07,12,15.00
2010,08,19,07,13,15.00
2010,08,19,07,14,15.00
2010,08,19,07,15,15.00
2010,08,19,07,16,15.00
2010,08,19,07,17,14.90
2010,08,19,07,18,14.90
2010,08,19,07,19,14.90
2010,08,19,07,20,14.90
2010,08,19,07,21,14.90
2010,08,19,07,22,14.90
2010,08,19,07,23,14.90
2010,08,19,07,24,14.90
2010,08,19,07,25,14.90
2010,08,19,07,26,14.90
2010,08,19,07,27,14.80
2010,08,19,07,28,14.80
2010,08,19,07,29,14.80
2010,08,19,07,30,14.80
2010,08,19,07,31,14.80
2010,08,19,07,32,14.80
2010,08,19,07,33,14.80
2010,08,19,07,34,14.80
2010,08,19,07,35,14.80
2010,08,19,07,36,14.80
2010,08,19,07,37,14.80
2010,08,19,07,38,14.80
2010,08,19,07,39,14.80
2010,08,19,07,40,14.80
2010,08,19,07,41,14.80
2010,08,19,07,42,14.80
2010,08,19,07,43,14.80
2010,08,19,07,44,14.80
2010,08,19,07,45,14.80
2010,08,19,07,46,14.80
2010,08,19,07,47,14.80
2010,08,19,07,48,14.80
2010,08,19,07,49,14.80
2010,08,19,07,50,14.80
2010,08,19,07,51,14.80
2010,08,19,07,52,14.80
2010,08,19,07,53,14.80
2010,08,19,07,54,14.80
2010,08,19,07,55,14.80
2010,08,19,07,56,14.80
2010,08,19,07,57,14.80
2010,08,19,07,58,14.80
2010,08,19,07,59,14.80
2010,08,19,08,00,14.80
2010,08,19,08,01,14.80
2010,08,19,08,02,14.80
2010,08,19,08,03,14.90
2010,08,19,08,04,14.90
2010,08,19,08,05,14.90
2010,08,19,08,06,14.90
2010,08,19,08,07,14.90
2010,08,19,08,08,14.90
2010,08,19,08,09,15.00
2010,08,19,08,10,15.00
2010,08,19,08,11,15.00
2010,08,19,08,12,15.00
2010,08,19,08,13,15.10
2010,08,19,08,14,15.10
2010,08,19,08,15,15.10
2010,08,19,08,16,15.20
2010,08,19,08,17,15.20
2010,08,19,08,18,15.20
2010,08,19,08,19,15.20
2010,08,19,08,20,15.30
2010,08,19,08,21,15.30
2010,08,19,08,22,15.30
2010,08,19,08,23,15.30
2010,08,19,08,24,15.30
2010,08,19,08,25,15.40
2010,08,19,08,26,15.40
2010,08,19,08,27,15.40
2010,08,19,08,28,15.40
2010,08,19,08,29,15.50
2010,08,19,08,30,15.50
2010,08,19,08,31,15.50
2010,08,19,08,32,15.60
2010,08,19,08,33,15.60
2010,08,19,08,34,15.60
2010,08,19,08,35,15.60
2010,08,19,08,36,15.70
2010,08,19,08,37,15.70
2010,08,19,08,38,15.80
2010,08,19,08,39,15.80
2010,08,19,08,40,15.80
2010,08,19,08,41,15.80
2010,08,19,08,42,15.90
2010,08,19,08,43,15.90
2010,08,19,08,44,15.90
2010,08,19,08,45,15.90
2010,08,19,08,46,15.90
2010,08,19,08,47,15.90
2010,08,19,08,48,15.90
2010,08,19,08,49,16.00
2010,08,19,08,50,16.00
2010,08,19,08,51,16.00
2010,08,19,08,52,16.00
2010,08,19,08,53,16.10
2010,08,19,08,54,16.10
2010,08,19,08,55,16.10
2010,08,19,08,56,16.10
2010,08,19,08,57,16.10
2010,08,19,08,58,16.10
2010,08,19,08,59,16.10
2010,08,19,09,00,16.20
2010,08,19,09,01,16.20
2010,08,19,09,02,16.20
2010,08,19,09,03,16.20
2010,08,19,09,04,16.20
2010,08,19,09,05,16.20
2010,08,19,09,06,16.30
2010,08,19,09,07,16.30
2010,08,19,09,08,16.30
2010,08,19,09,09,16.30
2010,08,19,09,10,16.30
2010,08,19,09,11,16.30
2010,08,19,09,12,16.30
2010,08,19,09,13,16.30
2010,08,19,09,14,16.30
2010,08,19,09,15,16.30
2010,08,19,09,16,16.30
2010,08,19,09,17,16.30
2010,08,19,09,18,16.30
2010,08,19,09,19,16.30
2010,08,19,09,20,16.30
2010,08,19,09,21,16.30
2010,08,19,09,22,16.30
2010,08,19,09,23,16.30
2010,08,19,09,24,16.30
2010,08,19,09,25,16.40
2010,08,19,09,26,16.40
2010,08,19,09,27,16.40
2010,08,19,09,28,16.40
2010,08,19,09,29,16.50
2010,08,19,09,30,16.50
2010,08,19,09,31,16.60
2010,08,19,09,32,16.50
2010,08,19,09,33,16.50
2010,08,19,09,34,16.60
2010,08,19,09,35,16.60
2010,08,19,09,36,16.60
2010,08,19,09,37,16.60
2010,08,19,09,38,16.60
2010,08,19,09,39,16.60
2010,08,19,09,40,16.60
2010,08,19,09,41,16.60
2010,08,19,09,42,16.60
2010,08,19,09,43,16.60
2010,08,19,09,44,16.60
2010,08,19,09,45,16.60
2010,08,19,09,46,16.60
2010,08,19,09,47,16.60
2010,08,19,09,48,16.60
2010,08,19,09,49,16.60
2010,08,19,09,50,16.60
2010,08,19,09,51,16.60
2010,08,19,09,52,16.60
2010,08,19,09,53,16.60
2010,08,19,09,54,16.60
2010,08,19,09,55,16.60
2010,08,19,09,56,16.60
2010,08,19,09,57,16.60
2010,08,19,09,58,16.60
2010,08,19,09,59,16.60
2010,08,19,10,00,16.50
2010,08,19,10,01,16.60
2010,08,19,10,02,16.60
2010,08,19,10,03,16.60
2010,08,19,10,04,16.60
2010,08,19,10,05,16.60
2010,08,19,10,06,16.60
2010,08,19,10,07,16.60
2010,08,19,10,08,16.60
2010,08,19,10,09,16.60
2010,08,19,10,10,16.60
2010,08,19,10,11,16.60
2010,08,19,10,12,16.60
2010,08,19,10,13,16.60
2010,08,19,10,14,16.60
2010,08,19,10,15,16.60
2010,08,19,10,16,16.60
2010,08,19,10,17,16.60
2010,08,19,10,18,16.60
2010,08,19,10,19,16.60
2010,08,19,10,20,16.60
2010,08,19,10,21,16.60
2010,08,19,10,22,16.60
2010,08,19,10,23,16.60
2010,08,19,10,24,16.60
2010,08,19,10,25,16.60
2010,08,19,10,26,16.60
2010,08,19,10,27,16.50
2010,08,19,10,28,16.50
2010,08,19,10,29,16.50
2010,08,19,10,30,16.50
2010,08,19,10,31,16.60
2010,08,19,10,32,16.60
2010,08,19,10,33,16.60
2010,08,19,10,34,16.60
2010,08,19,10,35,16.60
2010,08,19,10,36,16.70
2010,08,19,10,37,16.70
2010,08,19,10,38,16.70
2010,08,19,10,39,16.70
2010,08,19,10,40,16.70
2010,08,19,10,41,16.80
2010,08,19,10,42,16.80
2010,08,19,10,43,16.80
2010,08,19,10,44,16.80
2010,08,19,10,45,16.80
2010,08,19,10,46,16.80
2010,08,19,10,47,16.80
2010,08,19,10,48,16.80
2010,08,19,10,49,16.80
2010,08,19,10,50,16.80
2010,08,19,10,51,16.90
2010,08,19,10,52,16.90
2010,08,19,10,53,16.90
2010,08,19,10,54,16.90
2010,08,19,10,55,16.90
2010,08,19,10,56,17.00
2010,08,19,10,57,17.00
2010,08,19,10,58,17.00
2010,08,19,10,59,17.00
2010,08,19,11,00,17.10
2010,08,19,11,01,17.10
2010,08,19,11,02,17.10
2010,08,19,11,03,17.10
2010,08,19,11,04,17.20
2010,08,19,11,05,17.20
2010,08,19,11,06,17.20
2010,08,19,11,07,17.30
2010,08,19,11,08,17.30
2010,08,19,11,09,17.30
2010,08,19,11,10,17.30
2010,08,19,11,11,17.30
2010,08,19,11,12,17.40
2010,08,19,11,13,17.40
2010,08,19,11,14,17.40
2010,08,19,11,15,17.40
2010,08,19,11,16,17.40
2010,08,19,11,17,17.40
2010,08,19,11,18,17.40
2010,08,19,11,19,17.40
2010,08,19,11,20,17.40
2010,08,19,11,21,17.30
2010,08,19,11,22,17.30
2010,08,19,11,23,17.30
2010,08,19,11,24,17.30
2010,08,19,11,25,17.30
2010,08,19,11,26,17.20
2010,08,19,11,27,17.30
2010,08,19,11,28,17.30
2010,08,19,11,29,17.30
2010,08,19,11,30,17.20
2010,08,19,11,31,17.20
2010,08,19,11,32,17.20
2010,08,19,11,33,17.20
2010,08,19,11,34,17.20
2010,08,19,11,35,17.20
2010,08,19,11,36,17.20
2010,08,19,11,37,17.20
2010,08,19,11,38,17.20
2010,08,19,11,39,17.20
2010,08,19,11,40,17.20
2010,08,19,11,41,17.20
2010,08,19,11,42,17.20
2010,08,19,11,43,17.20
2010,08,19,11,44,17.20
2010,08,19,11,45,17.20
2010,08,19,11,46,17.20
2010,08,19,11,47,17.30
2010,08,19,11,48,17.30
2010,08,19,11,49,17.30
2010,08,19,11,50,17.30
2010,08,19,11,51,17.30
2010,08,19,11,52,17.30
2010,08,19,11,53,17.30
2010,08,19,11,54,17.30
2010,08,19,11,55,17.30
2010,08,19,11,56,17.30
2010,08,19,11,57,17.30
2010,08,19,11,58,17.20
2010,08,19,11,59,17.20
2010,08,19,12,00,17.20
2010,08,19,12,01,17.10
2010,08,19,12,02,17.10
2010,08,19,12,03,17.10
2010,08,19,12,04,17.10
2010,08,19,12,05,17.20
2010,08,19,12,06,17.20
2010,08,19,12,07,17.30
2010,08,19,12,08,17.30
2010,08,19,12,09,17.40
2010,08,19,12,10,17.50
2010,08,19,12,11,17.50
2010,08,19,12,12,17.60
2010,08,19,12,13,17.60
2010,08,19,12,14,17.70
2010,08,19,12,15,17.70
2010,08,19,12,16,17.80
2010,08,19,12,17,17.90
2010,08,19,12,18,18.10
2010,08,19,12,19,18.20
2010,08,19,12,20,18.40
2010,08,19,12,21,18.50
2010,08,19,12,22,18.50
2010,08,19,12,23,18.60
2010,08,19,12,24,18.60
2010,08,19,12,25,18.70
2010,08,19,12,26,18.80
2010,08,19,12,27,18.90
2010,08,19,12,28,19.00
2010,08,19,12,29,19.00
2010,08,19,12,30,19.10
2010,08,19,12,31,19.20
2010,08,19,12,32,19.30
2010,08,19,12,33,19.30
2010,08,19,12,34,19.30
2010,08,19,12,35,19.20
2010,08,19,12,36,19.10
2010,08,19,12,37,19.10
2010,08,19,12,38,19.10
2010,08,19,12,39,19.10
2010,08,19,12,40,19.00
2010,08,19,12,41,19.00
2010,08,19,12,42,19.00
2010,08,19,12,43,19.10
2010,08,19,12,44,19.10
2010,08,19,12,45,19.20
2010,08,19,12,46,19.20
2010,08,19,12,47,19.20
2010,08,19,12,48,19.10
2010,08,19,12,49,19.00
2010,08,19,12,50,18.90
2010,08,19,12,51,18.90
2010,08,19,12,52,19.00
2010,08,19,12,53,19.00
2010,08,19,12,54,19.10
2010,08,19,12,55,19.30
2010,08,19,12,56,19.30
2010,08,19,12,57,19.30
2010,08,19,12,58,19.20
2010,08,19,12,59,19.20
2010,08,19,13,00,19.20
2010,08,19,13,01,19.20
2010,08,19,13,02,19.20
2010,08,19,13,03,19.20
2010,08,19,13,04,19.20
2010,08,19,13,05,19.20
2010,08,19,13,06,19.20
2010,08,19,13,07,19.20
2010,08,19,13,08,19.20
2010,08,19,13,09,19.20
2010,08,19,13,10,19.20
2010,08,19,13,11,19.20
2010,08,19,13,12,19.20
2010,08,19,13,13,19.20
2010,08,19,13,14,19.20
2010,08,19,13,15,19.20
2010,08,19,13,16,19.10
2010,08,19,13,17,19.10
2010,08,19,13,18,19.10
2010,08,19,13,19,19.00
2010,08,19,13,20,19.00
2010,08,19,13,21,19.10
2010,08,19,13,22,19.10
2010,08,19,13,23,19.10
2010,08,19,13,24,19.10
2010,08,19,13,25,19.10
2010,08,19,13,26,19.10
2010,08,19,13,27,19.20
2010,08,19,13,28,19.30
2010,08,19,13,29,19.30
2010,08,19,13,30,19.20
2010,08,19,13,31,19.10
2010,08,19,13,32,19.10
2010,08,19,13,33,19.10
2010,08,19,13,34,19.20
2010,08,19,13,35,19.20
2010,08,19,13,36,19.30
2010,08,19,13,37,19.30
2010,08,19,13,38,19.20
2010,08,19,13,39,19.10
2010,08,19,13,40,19.10
2010,08,19,13,41,19.20
2010,08,19,13,42,19.20
2010,08,19,13,43,19.20
2010,08,19,13,44,19.20
2010,08,19,13,45,19.30
2010,08,19,13,46,19.40
2010,08,19,13,47,19.40
2010,08,19,13,48,19.40
2010,08,19,13,49,19.40
2010,08,19,13,50,19.40
2010,08,19,13,51,19.40
2010,08,19,13,52,19.50
2010,08,19,13,53,19.50
2010,08,19,13,54,19.50
2010,08,19,13,55,19.60
2010,08,19,13,56,19.60
2010,08,19,13,57,19.60
2010,08,19,13,58,19.50
2010,08,19,13,59,19.40
2010,08,19,14,00,19.40
2010,08,19,14,01,19.30
2010,08,19,14,02,19.20
2010,08,19,14,03,19.20
2010,08,19,14,04,19.10
2010,08,19,14,05,19.00
2010,08,19,14,06,18.90
2010,08,19,14,07,18.80
2010,08,19,14,08,18.80
2010,08,19,14,09,18.90
2010,08,19,14,10,18.90
2010,08,19,14,11,18.90
2010,08,19,14,12,19.00
2010,08,19,14,13,19.10
2010,08,19,14,14,19.00
2010,08,19,14,15,19.00
2010,08,19,14,16,18.90
2010,08,19,14,17,19.00
2010,08,19,14,18,19.10
2010,08,19,14,19,19.10
2010,08,19,14,20,19.20
2010,08,19,14,21,19.20
2010,08,19,14,22,19.20
2010,08,19,14,23,19.20
2010,08,19,14,24,19.20
2010,08,19,14,25,19.30
2010,08,19,14,26,19.40
2010,08,19,14,27,19.50
2010,08,19,14,28,19.70
2010,08,19,14,29,19.80
2010,08,19,14,30,19.90
2010,08,19,14,31,20.00
2010,08,19,14,32,20.00
2010,08,19,14,33,19.90
2010,08,19,14,34,20.00
2010,08,19,14,35,19.90
2010,08,19,14,36,19.80
2010,08,19,14,37,19.80
2010,08,19,14,38,19.60
2010,08,19,14,39,19.50
2010,08,19,14,40,19.40
2010,08,19,14,41,19.30
2010,08,19,14,42,19.30
2010,08,19,14,43,19.20
2010,08,19,14,44,19.20
2010,08,19,14,45,19.20
2010,08,19,14,46,19.20
2010,08,19,14,47,19.20
2010,08,19,14,48,19.20
2010,08,19,14,49,19.20
2010,08,19,14,50,19.20
2010,08,19,14,51,19.20
2010,08,19,14,52,19.30
2010,08,19,14,53,19.30
2010,08,19,14,54,19.30
2010,08,19,14,55,19.40
2010,08,19,14,56,19.40
2010,08,19,14,57,19.40
2010,08,19,14,58,19.40
2010,08,19,14,59,19.40
2010,08,19,15,00,19.40
2010,08,19,15,01,19.40
2010,08,19,15,02,19.40
2010,08,19,15,03,19.30
2010,08,19,15,04,19.30
2010,08,19,15,05,19.30
2010,08,19,15,06,19.30
2010,08,19,15,07,19.20
2010,08,19,15,08,19.20
2010,08,19,15,09,19.20
2010,08,19,15,10,19.20
2010,08,19,15,11,19.20
2010,08,19,15,12,19.20
2010,08,19,15,13,19.20
2010,08,19,15,14,19.20
2010,08,19,15,15,19.20
2010,08,19,15,16,19.30
2010,08,19,15,17,19.20
2010,08,19,15,18,19.20
2010,08,19,15,19,19.20
2010,08,19,15,20,19.30
2010,08,19,15,21,19.30
2010,08,19,15,22,19.30
2010,08,19,15,23,19.30
2010,08,19,15,24,19.30
2010,08,19,15,25,19.20
2010,08,19,15,26,19.10
2010,08,19,15,27,19.00
2010,08,19,15,28,19.00
2010,08,19,15,29,19.00
2010,08,19,15,30,19.10
2010,08,19,15,31,19.10
2010,08,19,15,32,19.10
2010,08,19,15,33,19.10
2010,08,19,15,34,19.10
2010,08,19,15,35,19.10
2010,08,19,15,36,19.10
2010,08,19,15,37,19.00
2010,08,19,15,38,19.00
2010,08,19,15,39,19.00
2010,08,19,15,40,19.00
2010,08,19,15,41,18.90
2010,08,19,15,42,19.00
2010,08,19,15,43,19.10
2010,08,19,15,44,19.10
2010,08,19,15,45,19.20
2010,08,19,15,46,19.10
2010,08,19,15,47,19.10
2010,08,19,15,48,19.10
2010,08,19,15,49,19.00
2010,08,19,15,50,19.10
2010,08,19,15,51,19.10
2010,08,19,15,52,19.10
2010,08,19,15,53,19.10
2010,08,19,15,54,19.20
2010,08,19,15,55,19.20
2010,08,19,15,56,19.20
2010,08,19,15,57,19.10
2010,08,19,15,58,19.00
2010,08,19,15,59,19.00
2010,08,19,16,00,18.90
2010,08,19,16,01,19.00
2010,08,19,16,02,19.00
2010,08,19,16,03,19.00
2010,08,19,16,04,19.00
2010,08,19,16,05,19.00
2010,08,19,16,06,19.00
2010,08,19,16,07,18.90
2010,08,19,16,08,18.90
2010,08,19,16,09,18.90
2010,08,19,16,10,19.00
2010,08,19,16,11,19.10
2010,08,19,16,12,19.10
2010,08,19,16,13,19.10
2010,08,19,16,14,19.10
2010,08,19,16,15,19.10
2010,08,19,16,16,19.00
2010,08,19,16,17,19.00
2010,08,19,16,18,19.00
2010,08,19,16,19,19.10
2010,08,19,16,20,19.10
2010,08,19,16,21,19.20
2010,08,19,16,22,19.20
2010,08,19,16,23,19.20
2010,08,19,16,24,19.20
2010,08,19,16,25,19.20
2010,08,19,16,26,19.30
2010,08,19,16,27,19.30
2010,08,19,16,28,19.30
2010,08,19,16,29,19.30
2010,08,19,16,30,19.30
2010,08,19,16,31,19.40
2010,08,19,16,32,19.50
2010,08,19,16,33,19.60
2010,08,19,16,34,19.70
2010,08,19,16,35,19.70
2010,08,19,16,36,19.70
2010,08,19,16,37,19.70
2010,08,19,16,38,19.80
2010,08,19,16,39,19.80
2010,08,19,16,40,19.80
2010,08,19,16,41,19.90
2010,08,19,16,42,19.90
2010,08,19,16,43,19.90
2010,08,19,16,44,19.90
2010,08,19,16,45,20.00
2010,08,19,16,46,20.00
2010,08,19,16,47,20.00
2010,08,19,16,48,20.10
2010,08,19,16,49,20.10
2010,08,19,16,50,20.10
2010,08,19,16,51,20.20
2010,08,19,16,52,20.20
2010,08,19,16,53,20.10
2010,08,19,16,54,20.10
2010,08,19,16,55,20.00
2010,08,19,16,56,20.00
2010,08,19,16,57,19.90
2010,08,19,16,58,19.80
2010,08,19,16,59,19.70
2010,08,19,17,00,19.70
2010,08,19,17,01,19.70
2010,08,19,17,02,19.60
2010,08,19,17,03,19.60
2010,08,19,17,04,19.70
2010,08,19,17,05,19.70
2010,08,19,17,06,19.70
2010,08,19,17,07,19.70
2010,08,19,17,08,19.60
2010,08,19,17,09,19.50
2010,08,19,17,10,19.40
2010,08,19,17,11,19.40
2010,08,19,17,12,19.50
2010,08,19,17,13,19.40
2010,08,19,17,14,19.40
2010,08,19,17,15,19.40
2010,08,19,17,16,19.50
2010,08,19,17,17,19.50
2010,08,19,17,18,19.60
2010,08,19,17,19,19.60